Previsão horária em Abercanaid

Hoje, 16 Janeiro, Sábado

Tempo Temperatura Precipitação Vento Pressão Humidade
00:00 +1°C° 0 mm 6 m/s 742 mmHg 90%
01:00 0°C° 1.7 mm 7 m/s 741 mmHg 92%
02:00 +2°C° 1.7 mm 7 m/s 740 mmHg 94%
03:00 +1°C° 1.7 mm 8 m/s 739 mmHg 96%
04:00 +3°C° 2.6 mm 7 m/s 738 mmHg 96%
05:00 +3°C° 2.6 mm 6 m/s 737 mmHg 97%
06:00 +4°C° 2.6 mm 6 m/s 736 mmHg 97%
07:00 +5°C° 1 mm 5 m/s 736 mmHg 95%
08:00 +5°C° 1 mm 5 m/s 736 mmHg 93%
09:00 +5°C° 1 mm 5 m/s 736 mmHg 92%
10:00 +5°C° 0 mm 5 m/s 737 mmHg 90%
11:00 +4°C° 0 mm 6 m/s 737 mmHg 88%
12:00 +5°C° 0 mm 6 m/s 738 mmHg 86%
13:00 +5°C° 0 mm 6 m/s 738 mmHg 86%
14:00 +5°C° 0 mm 5 m/s 738 mmHg 86%
15:00 +5°C° 0 mm 5 m/s 738 mmHg 86%
16:00 +3°C° 0 mm 5 m/s 738 mmHg 88%
17:00 +3°C° 0 mm 4 m/s 739 mmHg 90%
18:00 +1°C° 0 mm 4 m/s 739 mmHg 92%
19:00 +2°C° 0 mm 3 m/s 739 mmHg 92%
20:00 +1°C° 0 mm 3 m/s 740 mmHg 92%
21:00 +1°C° 0 mm 3 m/s 740 mmHg 92%
22:00 +1°C° 0 mm 3 m/s 740 mmHg 92%
23:00 +1°C° 0 mm 3 m/s 740 mmHg 92%

Amanhã, 17 Janeiro, Domingo

Tempo Temperatura Precipitação Vento Pressão Humidade
00:00 +1°C° 0 mm 3 m/s 741 mmHg 91%
01:00 0°C° 0 mm 4 m/s 741 mmHg 91%
02:00 0°C° 0 mm 4 m/s 741 mmHg 90%
03:00 0°C° 0 mm 4 m/s 741 mmHg 89%
04:00 0°C° 0 mm 4 m/s 741 mmHg 90%
05:00 -1°C° 0 mm 4 m/s 741 mmHg 90%
06:00 -1°C° 0 mm 4 m/s 742 mmHg 90%
07:00 0°C° 0 mm 3 m/s 742 mmHg 91%
08:00 0°C° 0 mm 3 m/s 742 mmHg 91%
09:00 +1°C° 0 mm 3 m/s 743 mmHg 91%
10:00 +2°C° 0 mm 3 m/s 743 mmHg 88%
11:00 +3°C° 0 mm 3 m/s 744 mmHg 85%
12:00 +4°C° 0 mm 4 m/s 744 mmHg 82%
13:00 +4°C° 0 mm 4 m/s 744 mmHg 83%
14:00 +4°C° 0 mm 4 m/s 744 mmHg 84%
15:00 +4°C° 0 mm 4 m/s 744 mmHg 85%
16:00 +3°C° 0 mm 3 m/s 744 mmHg 87%
17:00 +2°C° 0 mm 3 m/s 744 mmHg 89%
18:00 +3°C° 0 mm 2 m/s 744 mmHg 90%
19:00 +3°C° 0 mm 2 m/s 744 mmHg 91%
20:00 +2°C° 0 mm 2 m/s 744 mmHg 91%
21:00 +2°C° 0 mm 2 m/s 744 mmHg 92%
22:00 +2°C° 0 mm 2 m/s 744 mmHg 92%
23:00 +2°C° 0 mm 2 m/s 743 mmHg 92%

Depois de amanhã, 18 Janeiro, Segunda-feira

Tempo Temperatura Precipitação Vento Pressão Humidade
00:00 +1°C° 0 mm 2 m/s 743 mmHg 92%
01:00 +1°C° 0 mm 2 m/s 743 mmHg 92%
02:00 +1°C° 0 mm 2 m/s 742 mmHg 93%
03:00 0°C° 0 mm 3 m/s 742 mmHg 93%
04:00 +1°C° 0 mm 3 m/s 742 mmHg 93%
05:00 +1°C° 0 mm 3 m/s 742 mmHg 92%
06:00 +1°C° 0 mm 3 m/s 741 mmHg 92%
07:00 +1°C° 0 mm 3 m/s 741 mmHg 92%
08:00 +2°C° 0 mm 3 m/s 741 mmHg 92%
09:00 +2°C° 0 mm 3 m/s 741 mmHg 91%
10:00 +3°C° 0 mm 4 m/s 741 mmHg 88%
11:00 +3°C° 0 mm 4 m/s 741 mmHg 85%
12:00 +3°C° 0 mm 5 m/s 740 mmHg 81%
13:00 +4°C° 0 mm 4 m/s 739 mmHg 84%
14:00 +4°C° 0 mm 4 m/s 738 mmHg 87%
15:00 +4°C° 0 mm 3 m/s 737 mmHg 90%
16:00 +4°C° 0.7 mm 3 m/s 737 mmHg 92%
17:00 +4°C° 0.7 mm 4 m/s 736 mmHg 95%
18:00 +4°C° 0.7 mm 4 m/s 735 mmHg 97%
19:00 +5°C° 0.8 mm 5 m/s 734 mmHg 97%
20:00 +5°C° 0.8 mm 6 m/s 733 mmHg 97%
21:00 +6°C° 0.8 mm 7 m/s 732 mmHg 97%
22:00 +6°C° 1.2 mm 8 m/s 732 mmHg 97%
23:00 +6°C° 1.2 mm 9 m/s 731 mmHg 96%

19 Janeiro, Terça-feira

Tempo Temperatura Precipitação Vento Pressão Humidade
00:00 +7°C° 1.2 mm 11 m/s 731 mmHg 95%
01:00 +7°C° 0.1 mm 11 m/s 730 mmHg 94%
02:00 +7°C° 0.1 mm 11 m/s 730 mmHg 94%
03:00 +7°C° 0.1 mm 11 m/s 729 mmHg 93%
04:00 +7°C° 0.1 mm 11 m/s 729 mmHg 93%
05:00 +6°C° 0.1 mm 10 m/s 728 mmHg 93%
06:00 +6°C° 0.1 mm 10 m/s 728 mmHg 92%
07:00 +6°C° 0.9 mm 10 m/s 727 mmHg 93%
08:00 +6°C° 0.9 mm 10 m/s 727 mmHg 94%
09:00 +6°C° 0.9 mm 10 m/s 726 mmHg 94%
10:00 +6°C° 0.8 mm 10 m/s 726 mmHg 93%
11:00 +6°C° 0.8 mm 10 m/s 725 mmHg 92%
12:00 +6°C° 0.8 mm 10 m/s 724 mmHg 91%
13:00 +7°C° 1.7 mm 10 m/s 723 mmHg 92%
14:00 +7°C° 1.7 mm 10 m/s 722 mmHg 93%
15:00 +7°C° 1.7 mm 9 m/s 721 mmHg 93%
16:00 +7°C° 1.5 mm 10 m/s 720 mmHg 94%
17:00 +7°C° 1.5 mm 10 m/s 719 mmHg 94%
18:00 +7°C° 1.5 mm 10 m/s 719 mmHg 95%
19:00 +7°C° 1.3 mm 10 m/s 718 mmHg 94%
20:00 +7°C° 1.3 mm 11 m/s 717 mmHg 93%
21:00 +7°C° 1.3 mm 11 m/s 717 mmHg 93%
22:00 +7°C° 0.1 mm 11 m/s 716 mmHg 93%
23:00 +7°C° 0.1 mm 10 m/s 716 mmHg 93%

20 Janeiro, Quarta-feira

Tempo Temperatura Precipitação Vento Pressão Humidade
00:00 +7°C° 0.1 mm 10 m/s 715 mmHg 93%
01:00 +7°C° 0.3 mm 10 m/s 715 mmHg 93%
02:00 +7°C° 0.3 mm 10 m/s 714 mmHg 93%
03:00 +7°C° 0.3 mm 10 m/s 714 mmHg 94%
04:00 +7°C° 0.4 mm 9 m/s 713 mmHg 94%
05:00 +7°C° 0.4 mm 9 m/s 713 mmHg 94%
06:00 +6°C° 0.4 mm 9 m/s 713 mmHg 94%
07:00 +6°C° 0.5 mm 7 m/s 713 mmHg 93%
08:00 +5°C° 0.5 mm 6 m/s 713 mmHg 92%
09:00 +5°C° 0.5 mm 5 m/s 713 mmHg 92%
10:00 +3°C° 0.1 mm 5 m/s 713 mmHg 88%
11:00 +2°C° 0.1 mm 5 m/s 713 mmHg 85%
12:00 +2°C° 0.1 mm 6 m/s 714 mmHg 82%
13:00 +2°C° 0 mm 6 m/s 714 mmHg 81%
14:00 +2°C° 0 mm 6 m/s 714 mmHg 80%
15:00 +2°C° 0 mm 5 m/s 715 mmHg 79%
16:00 +1°C° 0 mm 5 m/s 715 mmHg 83%
17:00 0°C° 0 mm 5 m/s 715 mmHg 86%
18:00 0°C° 0 mm 4 m/s 716 mmHg 89%
19:00 0°C° 0 mm 5 m/s 716 mmHg 88%
20:00 -1°C° 0 mm 6 m/s 716 mmHg 88%
21:00 +1°C° 0 mm 6 m/s 716 mmHg 87%
22:00 +1°C° 0.1 mm 6 m/s 716 mmHg 87%
23:00 0°C° 0.1 mm 7 m/s 716 mmHg 87%

21 Janeiro, Quinta-feira

Tempo Temperatura Precipitação Vento Pressão Humidade
00:00 0°C° 0.1 mm 7 m/s 716 mmHg 86%
01:00 -1°C° 0 mm 6 m/s 717 mmHg 88%
02:00 -1°C° 0 mm 6 m/s 717 mmHg 89%
03:00 -1°C° 0 mm 5 m/s 718 mmHg 91%
04:00 -2°C° 0 mm 6 m/s 718 mmHg 90%
05:00 -2°C° 0 mm 6 m/s 719 mmHg 89%
06:00 -2°C° 0 mm 7 m/s 720 mmHg 88%
07:00 -2°C° 0 mm 6 m/s 721 mmHg 88%
08:00 -1°C° 0 mm 5 m/s 721 mmHg 89%
09:00 -1°C° 0 mm 4 m/s 722 mmHg 89%
10:00 0°C° 0 mm 5 m/s 722 mmHg 85%
11:00 +1°C° 0 mm 5 m/s 723 mmHg 81%
12:00 +2°C° 0 mm 5 m/s 723 mmHg 77%
13:00 +2°C° 0 mm 5 m/s 723 mmHg 78%
14:00 +3°C° 0 mm 4 m/s 723 mmHg 79%
15:00 +3°C° 0 mm 4 m/s 723 mmHg 80%
16:00 +2°C° 0 mm 3 m/s 723 mmHg 84%
17:00 +1°C° 0 mm 3 m/s 723 mmHg 87%
18:00 +1°C° 0 mm 2 m/s 723 mmHg 91%
19:00 +1°C° 0 mm 1 m/s 723 mmHg 92%
20:00 +1°C° 0 mm 1 m/s 723 mmHg 92%
21:00 +1°C° 0 mm 1 m/s 724 mmHg 92%
22:00 +1°C° 0 mm 1 m/s 724 mmHg 92%
23:00 +1°C° 0 mm 1 m/s 724 mmHg 92%
Mostrar mais